Content
SEND FEEDBACK

Daily
Averages
Monthly
Summary
United States of America

SHELBURNE FALLS, MASSACHUSETTS


Home > North America > United States > Massachusetts
Elevation: 400 feet     Latitude: 42 36N     Longitude: 072 44W

WEATHER
 
SELECT A DAY
Number of Records: 212,494;   Date Range: 7/1/96 - 8/12/14
 
SHARE

PRINT THIS DATA

[ ← Previous Day ]
WEATHER ALMANAC - JANUARY 13, 2014
[ Next Day → ]
[ °C ]   °F
Weather ElementAverageHighLow
Temperature37.7 °F45 °F (1:52 pm)25 °F (6:52 am)
Dewpoint27.7 °F35.1 °F (11:52 pm)23 °F (1:52 am)
Humidity68.5 %92 % (6:52 am)51 % (12:52 pm)
Barometer30.02 in30.11 in (8:52 am)29.88 in (11:52 pm)
Wind Speed7.3 mph15 mph (1:52 pm)
Wind Gust24.2 mph (1:52 pm)
Weather ElementAverage
Visibility9.9 mi
Wind DirectionESE (128.3 °)

Weather ElementTotal
Precipitation---
Heating Degree Days30 (Base 65)
Averaged from 23 records on January 13, 2014
WEATHER CONDITIONS BREAKOUT
WIND DIRECTION BREAKOUT
WEATHER BY HOUR - JANUARY 13, 2014
[ °C ]   °F
Local TimeTemperatureDewpointHumidityBarometerVisibilityWind DirectionWind SpeedGust SpeedPrecipitationEventsConditions
1:52 AM28.9 °F23.0 °F78 %30.03 in10.0 miCalmClear
2:52 AM28.0 °F23.0 °F81 %30.04 in10.0 miCalmClear
3:52 AM28.9 °F24.1 °F82 %30.06 in10.0 miSSE (160°)8.1 mphClear
4:52 AM27.0 °F23.0 °F85 %30.08 in10.0 miCalmClear
5:52 AM26.1 °F23.0 °F88 %30.10 in10.0 miCalmClear
6:52 AM25.0 °F23.0 °F92 %30.10 in9.0 miCalmClear
7:52 AM26.1 °F24.1 °F92 %30.10 in8.0 miCalmClear
8:52 AM32.0 °F25.0 °F75 %30.11 in10.0 miSouth (180°)6.9 mphClear
9:52 AM35.1 °F25.0 °F67 %30.10 in10.0 miSSE (160°)10.4 mphClear
10:52 AM37.0 °F26.1 °F65 %30.09 in10.0 miSouth (170°)6.9 mphClear
11:52 AM41.0 °F27.0 °F57 %30.05 in10.0 miSouth (180°)9.2 mphClear
12:52 PM44.1 °F27.0 °F51 %30.02 in10.0 miSouth (180°)12.7 mphClear
1:52 PM45.0 °F28.0 °F52 %30.00 in10.0 miSouth (190°)15.0 mph24.2 mphClear
2:52 PM45.0 °F28.9 °F53 %29.99 in10.0 miSouth (180°)15.0 mphClear
3:52 PM44.1 °F28.9 °F55 %30.00 in10.0 miSouth (190°)11.5 mphClear
4:52 PM44.1 °F28.9 °F55 %29.99 in10.0 miSouth (190°)6.9 mphClear
5:52 PM43.0 °F30.9 °F62 %30.00 in10.0 miSSE (150°)4.6 mphClear
6:52 PM43.0 °F32.0 °F65 %29.98 in10.0 miSSE (160°)4.6 mphClear
7:52 PM44.1 °F33.1 °F65 %29.95 in10.0 miSouth (190°)10.4 mphClear
8:52 PM45.0 °F32.0 °F60 %29.93 in10.0 miSSE (160°)12.7 mph20.7 mphClear
9:52 PM45.0 °F33.1 °F63 %29.90 in10.0 miSouth (170°)12.7 mphClear
10:52 PM45.0 °F34.0 °F65 %29.89 in10.0 miSouth (170°)11.5 mph20.7 mphClear
11:52 PM45.0 °F35.1 °F68 %29.88 in10.0 miSouth (170°)8.1 mphClear
Hourly data recorded from KORE, located miles away from Shelburne Falls, Massachusetts







STORIES FROM OUR PARTNERS